Regional Weather Roundup
Issued by NWS Upton, NY

Current Version | Previous Version | Graphics & Text | Print | Product List | Glossary Off
Versions: 1 2 3 4 5 6 7 8 9 10 11 12 13 14 15 16 17 18 19 20 21 22 23 24 25 26 27 28 29 30 31 32 33 34 35 36 37 38 39 40 41 42 43 44 45 46 47 48

000
ASUS41 KOKX 282007
RWROKX

REGIONAL WEATHER ROUNDUP
NATIONAL WEATHER SERVICE NEW YORK NY
400 PM EDT SAT MAR 28 2015

NOTE: "FAIR" INDICATES FEW OR NO CLOUDS BELOW 12,000 FEET WITH NO
SIGNIFICANT WEATHER AND/OR OBSTRUCTIONS TO VISIBILITY.

NYZ071-072-176-178-NJZ106-104-282100-
NEW YORK CITY METRO AREA


CITY           SKY/WX    TMP DP  RH WIND       PRES   REMARKS
CENTRAL PARK   CLOUDY    39  22  50 NE9G18    29.86S WCI  33
LAGUARDIA APRT PTSUNNY   37  24  59 N12       29.84S WCI  29
KENNEDY INTL   PTSUNNY   39  25  57 N15       29.85R WCI  31
NEWARK/LIBERTY PTSUNNY   43  16  33 NW15G24   29.84S
BRNX BOT. GARD   N/A    N/A N/A N/A N7        29.87R
TETERBORO      CLOUDY    39  19  44 NW12G23   29.84R WCI  32
$$

NYZ177-179-078>081-282100-
LONG ISLAND NEW YORK

CITY           SKY/WX    TMP DP  RH WIND       PRES   REMARKS
FARMINGDALE    FLURRIES  34  27  75 N14G22    29.84R WCI  25
ISLIP          LGT SNOW  32  27  81 NW21G30   29.81R WCI  20
SHIRLEY        LGT SNOW  32  28  85 NW16G29   29.83R FOG     WCI  21
WESTHAMPTON    LGT SNOW  32  29  88 NW16G22   29.82R VSB 3/4 WCI  21
MONTAUK POINT    N/A     36  34  92 NW7       29.78R WCI  30
$$

NYZ052-065-067-282100-
HUDSON VALLEY

CITY           SKY/WX    TMP DP  RH WIND       PRES   REMARKS
WHITE PLAINS   LGT SNOW  32  25  75 NW17      29.83R HAZE    WCI  21
NEWBURGH       CLOUDY    32  25  74 N12       29.86R WCI  23
MONTGOMERY     CLOUDY    33  20  58 MISG      29.86R
POUGHKEEPSIE   CLOUDY    33  21  61 N13       29.87S WCI  24
ALBANY         FLURRIES  30  21  69 NW13      29.91F WCI  20
$$

NJZ001-105-106-008-010-013-015-019>022-104-282100-
NEW JERSEY

CITY           SKY/WX    TMP DP  RH WIND       PRES   REMARKS
NEWARK/LIBERTY PTSUNNY   43  16  33 NW15G24   29.84S
TETERBORO      CLOUDY    39  19  44 NW12G23   29.84R WCI  32
CALDWELL       CLOUDY    39  15  37 NW14G23   29.85S WCI  31
MORRISTOWN     PTSUNNY   39  16  38 N12G22    29.86S WCI  32
SOMERVILLE     MOSUNNY   40  14  34 NW15G24   29.86R WCI  32
SUSSEX         CLOUDY    34  14  43 NW9G22    29.88R WCI  27
ANDOVER          N/A     35  15  44 N12G18    29.87R WCI  27
TRENTON        CLOUDY    38  14  37 N16G23    29.87R WCI  29
MILLVILLE      CLOUDY    38  20  48 NW14G26   29.91R WCI  30
ATLANTIC CITY  PTSUNNY   40  19  43 NW20G28   29.87R WCI  30
WRIGHTSTOWN    PTSUNNY   39  18  41 W15G23    29.86R WCI  31
TOMS RIVER     CLOUDY    41  18  38 NW12      29.86R
BELMAR         CLOUDY    41  18  38 NW16G22   29.84R
$$

PAZ047>061-062-071-282100-
EASTERN PENNSYLVANIA

CITY           SKY/WX    TMP DP  RH WIND       PRES   REMARKS
PHILADELPHIA   CLOUDY    40  13  33 NW20G29   29.92R WCI  30
ALLENTOWN      MOSUNNY   36  13  38 NW15G24   29.92R WCI  27
SCRANTON       CLOUDY    27  10  49 NW17G23   29.93S WCI  14
$$

CTZ002-004>006-009-010-012-RIZ004-006-007-MAZ004-011-015-282100-
SOUTHERN NEW ENGLAND
 IN CT

CITY           SKY/WX    TMP DP  RH WIND       PRES   REMARKS
BRADLEY INTL   LGT SNOW  34  30  85 N9        29.80R VSB 1   WCI  27
HARTFORD       LGT SNOW  33  29  85 N10       29.82R VSB 1   WCI  25
DANBURY        CLOUDY    30  20  66 N16G23    29.85R HAZE    WCI  19
WTRBRY/OXFORD  CLOUDY   N/A N/A N/A NW12G18   29.81R FOG
BRIDGEPORT     LGT SNOW  33  27  78 NW17G26   29.83R WCI  22
MERIDEN        LGT SNOW  31  27  85 NW13      29.82R VSB 3/4 WCI  21
NEW HAVEN      LGT SNOW  32  29  88 NW8       29.82R VSB 3/4 WCI  25
CHESTER        LGT SNOW  34  32  93 N10       29.78R WCI  26
GROTON         LGT RAIN  37  35  92 NW12      29.77R WCI  29
WILLIMANTIC    LGT SNOW  35  29  78 N12       29.78R WCI  27

 IN RI

CITY           SKY/WX    TMP DP  RH WIND       PRES   REMARKS
PROVIDENCE     LGT SNOW  35  32  88 N13       29.77R FOG     WCI  26
BLOCK ISLAND   CLOUDY    36  32  87 N10       29.76R WCI  28
WESTERLY       LGT SNOW  36  33  89 N9G20     29.77R FOG     WCI  29

 IN MA

CITY           SKY/WX    TMP DP  RH WIND       PRES   REMARKS
BOSTON         LGT SNOW  33  31  92 N14       29.78R FOG     WCI  23
WORCESTER      LGT SNOW  32  27  81 N10       29.74R WCI  24
WESTFIELD      LGT SNOW  32  29  88 NW7       29.81R VSB 1   WCI  26
PROVINCETOWN   CLOUDY    34  28  80 N22G30    29.72R WCI  22
NANTUCKET      FLURRIES  36  33  89 N22G28    29.68R WCI  25
$$

ANZ330-335-338-340-345-350-353-355-282100-
COASTAL MARINE OBSERVATIONS


STATION/POSITION TIME  SKY/WX   TEMP    WIND        PRES    VSBY  WAVE
                                AIR SEA DIR/SP/G                  HT/PER
                 (UTC)          (F)     (DEG/KT/KT) (MB)    (MI)  (FT/S)
NY HARB ENTRANCE 1950            36 38  360/ 14/ 17 1010.0          3/11
4S FIRE IS       1903               36                N/A           4/11
20S FIRE ISLAND  1850               38              1009.8          5/11
23SW MTP         1950                                 N/A           5/11
HUDSON CANYON    NOT AVBL
EXECUTION ROCKS  NOT AVBL
WESTERN LI SOUND NOT AVBL
CENTRAL LI SOUND NOT AVBL
EASTERN LI SOUND NOT AVBL
ROBBINS REEF     1900            38     330/ 10/ 15 1009.1
$$


>>>>>>>>>>>>>>>>>>>>>>>>>>>> KEY <<<<<<<<<<<<<<<<<<<<<<<<<<<
>                                                          <
>     SKY/WX - SKY CONDITION/PRESENT WEATHER               <
>     TMP    - TEMPERATURE IN FAHRENHEIT                   <
>     DP     - DEWPOINT IN FAHRENHEIT                      <
>     RH     - RELATIVE HUMIDITY IN PERCENT                <
>     WIND   - DIRECTION AND SPEED IN MPH                  <
>     PRES   - MEAN SEA LEVEL PRESSURE IN INCHES OF HG     <
>     WCI    - WIND CHILL INDEX                            <
>     VSB    - VISIBILITY IN MILES                         <
>     HX     - HEAT INDEX                                  <
>     TC     - TEMPERATURE IN CELSIUS                      <
>     VRB    - VARIABLE WIND DIRECTION                     <
>                                                          <
>>>>>>>>>>>>>>>>>>>>>>>>>>>> KEY <<<<<<<<<<<<<<<<<<<<<<<<<<<





USA.gov is the U.S. government's official web portal to all federal, state and local government web resources and services.